Regional Weather Roundup
Issued by NWS

Home | Current Version | Previous Version | Graphics & Text | Print | Product List | Glossary On
Versions: 1 2 3 4 5 6 7 8 9 10 11 12 13 14 15 16 17 18 19 20 21 22 23 24 25 26 27 28 29 30 31 32 33 34 35 36 37 38 39 40 41 42 43 44 45 46 47 48 49 50
000
ASUS45 KCYS 062210
RWRWY

WYOMING REGIONAL WEATHER ROUNDUP
NATIONAL WEATHER SERVICE CHEYENNE WY
300 PM MST TUE DEC 06 2016

NOTE:  "FAIR" INDICATES FEW OR NO CLOUDS BELOW 12,000 FEET
WITH NO SIGNIFICANT WEATHER AND/OR OBSTRUCTIONS TO VISIBILITY.

WYZ001-062300-
YELLOWSTONE NATIONAL PARK

CITY           SKY/WX    TMP DP  RH WIND       PRES   REMARKS
LK YELLOWSTONE   N/A      9  -1  64 VRB3      29.68R
W YELLOWSTONE  NOT AVBL

$$
WYZ002>013-054>058-071-098>099-062300-
NORTHERN WYOMING

CITY           SKY/WX    TMP DP  RH WIND       PRES   REMARKS
JACKSON        CLOUDY     3  -2  78 S3        29.76R
CODY           FLURRIES  12   7  80 N9        29.89R WCI   0
GREYBULL       FAIR      21   7  54 N8        29.93S WCI  11
WORLAND        FAIR      15   8  73 NW5       29.91S WCI   8
SHERIDAN       CLOUDY    10   3  73 W12       30.01R WCI  -5
BUFFALO        CLOUDY     8   2  76 CALM      29.93R
GILLETTE       CLOUDY     8   2  76 NW6       29.97R WCI  -2
HULETT         MOCLDY    10   1  67 W7        29.97R WCI   0
NEWCASTLE      FAIR       9   0  66 N16G22    29.98S WCI  -9

$$
WYZ014>020-022>026-101>103-062300-
CENTRAL WYOMING

CITY           SKY/WX    TMP DP  RH WIND       PRES   REMARKS
BIG PINEY      CLOUDY    10  -5  50 CALM      29.71F
PINEDALE       CLOUDY    10   0  61 N10       29.71S WCI  -3
DUBOIS         MOCLDY    12 -13  31 S6        29.67R WCI   3
LANDER         FAIR      15  -2  46 W6        29.78S WCI   6
RIVERTON       FAIR      16  -6  37 NE8       29.80R WCI   5
CASPER         FAIR       5  -4  66 E7        29.84S WCI  -7
DOUGLAS        FAIR       9   2  73 CALM      29.89F

$$
WYZ021-027>030-104>119-062300-
SOUTHERN WYOMING

CITY           SKY/WX    TMP DP  RH WIND       PRES   REMARKS
EVANSTON       LGT SNOW  11   5  77 E7        29.68R WCI   0
FORT BRIDGER   LGT SNOW   6   2  82 NW5       29.73R WCI  -3
ROCK SPRINGS   CLOUDY    17  -6  35 E5        29.69F WCI  10
DIXON          CLOUDY    23   5  45 CALM      29.73S
RAWLINS        PTSUNNY   15  -9  33 E6        29.72F WCI   6
SARATOGA       CLOUDY    19  -8  30 NW3       29.70F
LARAMIE        CLOUDY    16  -4  41 SE18      29.70S WCI   0
CHEYENNE       CLOUDY    21  -9  26 S13       29.80S WCI   9
TORRINGTON     FAIR      23   0  36 NW5       29.90S WCI  17
PINE BLUFFS    CLOUDY    23  -6  28 S13       29.87S WCI  11

$$



USA.gov is the U.S. government's official web portal to all federal, state and local government web resources and services.